Location: Eisingen in Unterfranken
(49.7591°N, 9.8347°E)
Time: 03:44:32
(UTC+01:00)

N. Korean satellite - Pass Details

Date: 06 December 2022
Orbit: 408 x 444 km, 97.3° (Epoch: 28 January)

Event Time Altitude Azimuth Distance (km) Brightness Sun altitude
Rises 04:39:44 0° 30° (NNE) 2,514 10.6 -31.6°
Reaches altitude 10° 04:42:37 10° 56° (NE) 1,623 9.9 -31.2°
Maximum altitude 04:44:32 14° 90° (E) 1,375 9.6 -30.9°
Drops below altitude 10° 04:46:27 10° 124° (SE) 1,599 9.8 -30.6°
Sets 04:49:15 0° 150° (SSE) 2,452 10.5 -30.1°
